Rome, GA

5:30 PM EDT on April 25, 2018 (GMT -0400)
Russell

Weather History for KRMG - July, 2013

Change the Weather History Date:

Sunday, July 28, 2013

  Actual Average Record
Temperature  
Mean Temperature 78 °F 80 °F  
Max Temperature 88 °F 90 °F 98 °F (2002)
Min Temperature 68 °F 69 °F 8 °F (1996)
Cooling Degree Days 13 15  
Month to date cooling degree days 357 406  
Year to date cooling degree days 866 904  
Since 1 June cooling degree days 723 736  
Growing Degree Days 28 (Base 50)    
Moisture  
Dew Point 70 °F    
Average Humidity 78    
Maximum Humidity 100    
Minimum Humidity 55    
Precipitation  
Precipitation 0.00 in 0.09 in 0.73 in (2015)
Month to date precipitation 5.16 4.03  
Year to date precipitation 25.38 31.00  
Sea Level Pressure  
Sea Level Pressure 29.97 in    
Wind  
Wind Speed 2 mph (NNW)    
Max Wind Speed 12 mph    
Max Gust Speed 21 mph    
Visibility 9 miles    
Events      
T = Trace of Precipitation, MM = Missing Value Source: NWS Daily Summary

Daily Weather History Graph

Daily Weather History Graph

Search for Another Location

Airport or City:

Astronomy

Jul. 28, 2013 Rise Set
Actual Time 6:48 AM EDT 8:45 PM EDT
Civil Twilight 6:20 AM EDT 9:12 PM EDT
Nautical Twilight 5:47 AM EDT 9:46 PM EDT
Astronomical Twilight 5:11 AM EDT 10:22 PM EDT
Moon No Moon Rise 1:09 PM EDT (7/28)
Length of Visible Light 14h 52m
Length of Day
13h 56m
Waning Gibbous, 61% of the Moon is Illuminated
Jul 28
Waning Gibbous
Jul 29
Last Quarter
Aug 6
New
Aug 14
First Quarter
Aug 20
Full

Hourly Weather History & Observations

Time (EDT) Temp. Heat Index Dew Point Humidity Pressure Visibility Wind Dir Wind Speed Gust Speed Precip Events Conditions
12:53 AM 70.0 °F - 69.1 °F 97% 29.92 in 9.0 mi Calm Calm - N/A   Mostly Cloudy
1:53 AM 70.0 °F - 69.1 °F 97% 29.91 in 8.0 mi Calm Calm - N/A   Scattered Clouds
2:53 AM 70.0 °F - 69.1 °F 97% 29.91 in 7.0 mi SSW 3.5 mph - N/A   Overcast
3:53 AM 70.0 °F - 69.1 °F 97% 29.92 in 8.0 mi Calm Calm - N/A   Overcast
4:53 AM 70.0 °F - 69.1 °F 97% 29.93 in 7.0 mi Calm Calm - N/A   Overcast
5:53 AM 69.1 °F - 68.0 °F 96% 29.92 in 6.0 mi Calm Calm - N/A   Partly Cloudy
6:53 AM 68.0 °F - 68.0 °F 100% 29.95 in 4.0 mi Calm Calm - N/A   Scattered Clouds
7:53 AM 70.0 °F - 69.1 °F 97% 29.97 in 6.0 mi North 3.5 mph - N/A   Mostly Cloudy
8:53 AM 73.0 °F - 71.1 °F 93% 29.97 in 7.0 mi Calm Calm - N/A   Mostly Cloudy
9:53 AM 77.0 °F - 69.1 °F 76% 29.98 in 10.0 mi North 4.6 mph - N/A   Overcast
10:53 AM 79.0 °F - 70.0 °F 74% 29.98 in 10.0 mi ENE 3.5 mph - N/A   Clear
11:37 AM 80.6 °F 83.9 °F 69.8 °F 70% 30.02 in 10.0 mi Variable 3.5 mph - N/A   Mostly Cloudy
11:51 AM 82.4 °F 86.3 °F 69.8 °F 66% 30.02 in 10.0 mi Calm Calm - N/A   Mostly Cloudy
11:53 AM 82.9 °F 87.0 °F 70.0 °F 65% 29.99 in 10.0 mi Variable 4.6 mph - N/A   Mostly Cloudy
12:53 PM 84.0 °F 87.0 °F 68.0 °F 58% 29.98 in 10.0 mi Variable 3.5 mph - N/A   Scattered Clouds
1:53 PM 84.0 °F 87.0 °F 68.0 °F 58% 29.97 in 10.0 mi Calm Calm - N/A   Partly Cloudy
2:53 PM 87.1 °F 91.3 °F 69.1 °F 55% 29.95 in 10.0 mi North 6.9 mph - N/A   Scattered Clouds
3:53 PM 84.9 °F 88.8 °F 69.1 °F 59% 29.95 in 10.0 mi WNW 3.5 mph - N/A   Clear
4:53 PM 86.0 °F 90.1 °F 69.1 °F 57% 29.95 in 10.0 mi NNW 4.6 mph - N/A   Clear
5:53 PM 78.1 °F - 69.1 °F 74% 29.96 in 10.0 mi SW 10.4 mph 17.3 mph N/A   Overcast
6:53 PM 80.1 °F 82.9 °F 69.1 °F 69% 29.96 in 10.0 mi Calm Calm - N/A   Clear
7:53 PM 79.0 °F - 73.0 °F 82% 29.98 in 10.0 mi Calm Calm - N/A   Clear
8:53 PM 75.9 °F - 72.0 °F 87% 29.99 in 10.0 mi Calm Calm - N/A   Clear
9:53 PM 75.9 °F - 71.1 °F 85% 30.01 in 10.0 mi NNW 4.6 mph - N/A   Clear
10:53 PM 71.1 °F - 69.1 °F 93% 30.02 in 10.0 mi Calm Calm - N/A   Clear
11:53 PM 72.0 °F - 69.1 °F 91% 30.04 in 10.0 mi NNW 5.8 mph - N/A   Clear